EW7961 Weather Reports


Display with metric or nautical units.
time (UTC)temp
F
wind
direction
speed
MPH
gust
MPH
rain 1hr
in
rain 24hr
in
rain mn
in
humidity
%
barometer
mb
20260904110523 81 286 1.0 2.0 0.00 0.00 0.00 75 1015.3
20260904105522 81 283 1.0 2.0 0.00 0.00 0.00 75 1015.2
20260904104523 81 276 1.0 2.0 0.00 0.00 0.00 75 1015.2
20260904103523 81 277 1.0 2.0 0.00 0.00 0.00 74 1015.1
20260904102523 82 302 1.0 1.0 0.00 0.00 0.00 74 1015.0
20260904101525 82 276 1.0 2.0 0.00 0.00 0.00 73 1014.9
20260904100525 82 283 1.0 2.0 0.00 0.00 0.00 73 1014.9
20260904095523 82 280 1.0 2.0 0.00 0.00 0.00 73 1014.9
20260904094524 82 284 1.0 2.0 0.00 0.00 0.00 73 1014.9
20260904093523 83 283 0.0 1.0 0.00 0.00 0.00 72 1014.9
20260904092525 83 282 1.0 2.0 0.00 0.00 0.00 71 1014.9
20260904091524 83 278 1.0 2.0 0.00 0.00 0.00 71 1014.8
20260904090604 83 281 1.0 2.0 0.00 0.00 0.00 71 1014.7
20260904085524 83 274 2.0 3.0 0.00 0.00 0.00 71 1014.6
20260904084524 83 285 1.0 2.0 0.00 0.00 0.00 71 1014.6
20260904083524 83 285 1.0 2.0 0.00 0.00 0.00 71 1014.5
20260904082604 83 290 1.0 1.0 0.00 0.00 0.00 71 1014.5
20260904081524 83 285 1.0 2.0 0.00 0.00 0.00 71 1014.6
20260904080605 84 273 1.0 3.0 0.00 0.00 0.00 70 1014.5
20260904075525 84 270 1.0 2.0 0.00 0.00 0.00 70 1014.4
20260904074607 84 277 1.0 2.0 0.00 0.00 0.00 70 1014.5
20260904073525 84 292 1.0 2.0 0.00 0.00 0.00 70 1014.5
20260904072525 84 283 1.0 2.0 0.00 0.00 0.00 69 1014.4
20260904071645 84 281 1.0 2.0 0.00 0.00 0.00 69 1014.5
20260904070518 84 289 1.0 1.0 0.00 0.00 0.00 68 1014.5
20260904065518 85 292 1.0 2.0 0.00 0.00 0.00 68 1014.5
20260904064519 85 282 2.0 2.0 0.00 0.00 0.00 68 1014.5
20260904063519 85 292 1.0 2.0 0.00 0.00 0.00 68 1014.5
20260904062519 85 291 1.0 2.0 0.00 0.00 0.00 67 1014.5
20260904061519 85 286 1.0 2.0 0.00 0.00 0.00 67 1014.5
20260904060559 86 287 1.0 2.0 0.00 0.00 0.00 67 1014.5
20260904055519 0 291 0.0 2.0 0.00 0.00 0.00
20260904054517 0 293 1.0 2.0 0.00 0.00 0.00
20260904053519 86 288 1.0 3.0 0.00 0.00 0.00 65 1014.4
20260904052600 86 288 1.0 2.0 0.00 0.00 0.00 65 1014.5
20260904051520 87 288 1.0 2.0 0.00 0.00 0.00 64 1014.4
20260904050557 87 295 1.0 3.0 0.00 0.00 0.00 64 1014.4
20260904045517 87 288 1.0 2.0 0.00 0.00 0.00 64 1014.4
20260904044600 87 292 1.0 3.0 0.00 0.00 0.00 63 1014.4
20260904043600 88 297 1.0 2.0 0.00 0.00 0.00 62 1014.5
20260904042518 88 290 1.0 3.0 0.00 0.00 0.00 62 1014.3
20260904041517 88 292 1.0 2.0 0.00 0.00 0.00 62 1014.3
20260904040518 88 290 1.0 2.0 0.00 0.00 0.00 62 1014.3
20260904035601 88 296 1.0 3.0 0.00 0.00 0.00 61 1014.4
20260904034518 88 291 1.0 3.0 0.00 0.00 0.00 61 1014.4
20260904033518 89 293 1.0 2.0 0.00 0.00 0.00 61 1014.3
20260904032518 89 289 1.0 2.0 0.00 0.00 0.00 60 1014.3
20260904031518 89 289 1.0 3.0 0.00 0.00 0.00 60 1014.3
20260904030518 89 294 1.0 3.0 0.00 0.00 0.00 60 1014.2
20260904025518 89 290 1.0 3.0 0.00 0.00 0.00 59 1014.2
20260904024519 90 290 1.0 3.0 0.00 0.00 0.00 58 1014.1
20260904023522 90 294 1.0 2.0 0.00 0.00 0.00 58 1014.0
20260904022519 90 289 1.0 2.0 0.00 0.00 0.00 57 1014.0
20260904021519 91 294 1.0 4.0 0.00 0.00 0.00 57 1013.9
20260904020522 91 293 1.0 3.0 0.00 0.00 0.00 56 1013.7
20260904015519 91 292 1.0 3.0 0.00 0.00 0.00 55 1013.7
20260904014519 92 290 1.0 3.0 0.00 0.00 0.00 54 1013.6
20260904013517 92 288 1.0 3.0 0.00 0.00 0.00 53 1013.5
20260904012519 92 291 0.0 2.0 0.00 0.00 0.00 52 1013.4
20260904011600 93 297 1.0 2.0 0.00 0.00 0.00 51 1013.3
20260904010520 93 298 1.0 2.0 0.00 0.00 0.00 50 1013.2
20260904005517 93 295 1.0 3.0 0.00 0.00 0.00 49 1013.1
20260904004557 94 297 0.0 2.0 0.00 0.00 0.00 48 1013.0
20260904003520 94 293 1.0 2.0 0.00 0.00 0.00 48 1012.9
20260904002520 95 292 1.0 3.0 0.00 0.00 0.00 47 1012.9
20260904001517 95 290 1.0 2.0 0.00 0.00 0.00 47 1012.8
20260904000558 96 291 1.0 2.0 0.00 0.00 0.00 46 1012.8
20260903234521 97 298 1.0 3.0 0.00 0.00 0.00 44 1012.8
20260903233518 97 295 1.0 3.0 0.00 0.00 0.00 44 1012.8
20260903232518 97 296 1.0 4.0 0.00 0.00 0.00 43 1012.7
20260903231524 98 298 1.0 3.0 0.00 0.00 0.00 43 1012.7
20260903230518 98 291 2.0 4.0 0.00 0.00 0.00 42 1012.7
20260903225527 99 297 0.0 2.0 0.00 0.00 0.00 42 1012.7
20260903224559 99 290 2.0 3.0 0.00 0.00 0.00 41 1012.7
20260903223518 100 290 1.0 2.0 0.00 0.00 0.00 40 1012.7
20260903222518 102 302 1.0 4.0 0.00 0.00 0.00 39 1012.7
20260903221518 103 291 1.0 4.0 0.00 0.00 0.00 38 1012.7
20260903220519 103 295 2.0 4.0 0.00 0.00 0.00 38 1012.7
20260903215519 103 291 2.0 4.0 0.00 0.00 0.00 38 1012.8
20260903214639 103 302 1.0 3.0 0.00 0.00 0.00 38 1012.8
20260903213559 103 288 1.0 3.0 0.00 0.00 0.00 38 1012.9
20260903212516 102 295 1.0 4.0 0.00 0.00 0.00 38 1013.0
20260903211519 101 292 2.0 5.0 0.00 0.00 0.00 39 1013.1
20260903210640 101 297 1.0 4.0 0.00 0.00 0.00 40 1013.2
20260903205600 100 295 2.0 4.0 0.00 0.00 0.00 40 1013.2
20260903204519 100 269 1.0 3.0 0.00 0.00 0.00 40 1013.3
20260903203520 100 288 1.0 3.0 0.00 0.00 0.00 41 1013.4
20260903202520 100 287 3.0 4.0 0.00 0.00 0.00 40 1013.5
20260903201520 100 299 2.0 4.0 0.00 0.00 0.00 41 1013.6
20260903200520 100 285 2.0 4.0 0.00 0.00 0.00 41 1013.7
20260903195641 99 284 2.0 3.0 0.00 0.00 0.00 41 1013.7
20260903194520 98 274 1.0 2.0 0.00 0.00 0.00 43 1013.9
20260903193521 97 292 3.0 4.0 0.00 0.00 0.00 44 1014.1
20260903192521 98 278 2.0 3.0 0.00 0.00 0.00 43 1014.2
20260903191521 97 304 3.0 3.0 0.00 0.00 0.00 44 1014.3
20260903190521 97 296 3.0 4.0 0.00 0.00 0.00 45 1014.4
20260903185601 97 293 1.0 2.0 0.00 0.00 0.00 46 1014.5
20260903184521 97 295 0.0 2.0 0.00 0.00 0.00 45 1014.6
20260903183601 97 287 2.0 3.0 0.00 0.00 0.00 46 1014.6
20260903182521 97 304 2.0 3.0 0.00 0.00 0.00 46 1014.7
20260903181521 97 299 2.0 3.0 0.00 0.00 0.00 46 1014.9
20260903180535 96 291 2.0 3.0 0.00 0.00 0.00 47 1015.0
20260903175535 97 270 2.0 4.0 0.00 0.00 0.00 46 1015.2
20260903174522 96 290 3.0 5.0 0.00 0.00 0.00 46 1015.3
20260903173536 96 290 3.0 5.0 0.00 0.00 0.00 46 1015.3
20260903172538 95 286 2.0 4.0 0.00 0.00 0.00 47 1015.3
20260903171522 95 302 2.0 4.0 0.00 0.00 0.00 49 1015.4
20260903170522 95 302 2.0 5.0 0.00 0.00 0.00 49 1015.6
20260903165522 94 287 2.0 4.0 0.00 0.00 0.00 49 1015.6
20260903164523 94 294 2.0 4.0 0.00 0.00 0.00 50 1015.7
20260903163522 94 288 2.0 5.0 0.00 0.00 0.00 50 1015.8
20260903162524 93 289 2.0 3.0 0.00 0.00 0.00 50 1015.8
20260903161523 93 277 2.0 5.0 0.00 0.00 0.00 51 1015.9
20260903160522 92 294 2.0 4.0 0.00 0.00 0.00 53 1015.9
20260903155523 92 291 1.0 4.0 0.00 0.00 0.00 54 1016.0
20260903154523 91 285 1.0 3.0 0.00 0.00 0.00 57 1016.0
20260903153523 90 286 2.0 3.0 0.00 0.00 0.00 58 1016.0
20260903152524 90 290 2.0 3.0 0.00 0.00 0.00 58 1016.1
20260903151524 89 283 2.0 4.0 0.00 0.00 0.00 59 1016.1
20260903150524 89 275 2.0 3.0 0.00 0.00 0.00 60 1016.0
20260903145524 88 289 2.0 4.0 0.00 0.00 0.00 62 1016.0
20260903144524 87 283 2.0 4.0 0.00 0.00 0.00 63 1016.1
20260903143524 86 277 1.0 2.0 0.00 0.00 0.00 64 1016.1
20260903142525 86 282 2.0 4.0 0.00 0.00 0.00 67 1016.2
20260903141538 85 272 2.0 4.0 0.00 0.00 0.00 68 1016.3
20260903140525 85 271 2.0 3.0 0.00 0.00 0.00 69 1016.3
20260903135525 84 287 2.0 3.0 0.00 0.00 0.00 69 1016.3
20260903134525 83 280 2.0 3.0 0.00 0.00 0.00 70 1016.3
20260903133525 83 285 2.0 3.0 0.00 0.00 0.00 71 1016.3
20260903132525 83 271 2.0 3.0 0.00 0.00 0.00 71 1016.3
20260903131525 83 272 2.0 3.0 0.00 0.00 0.00 72 1016.3
20260903130525 83 273 2.0 2.0 0.00 0.00 0.00 71 1016.3
20260903125540 83 281 2.0 2.0 0.00 0.00 0.00 71 1016.3
20260903124526 82 274 2.0 3.0 0.00 0.00 0.00 71 1016.3
20260903123526 81 276 2.0 3.0 0.00 0.00 0.00 74 1016.2
20260903122531 80 276 2.0 3.0 0.00 0.00 0.00 75 1016.2
20260903121526 80 279 1.0 2.0 0.00 0.00 0.00 76 1016.1
20260903120526 80 277 1.0 2.0 0.00 0.00 0.00 76 1016.1
20260903115526 80 274 1.0 2.0 0.00 0.00 0.00 76 1016.0
20260903113527 80 274 1.0 2.0 0.00 0.00 0.00 75 1015.9
20260903112526 80 280 1.0 2.0 0.00 0.00 0.00 75 1015.8
20260903111527 80 269 1.0 2.0 0.00 0.00 0.00 75 1015.8